| time (UTC) | temp F | wind direction | speed MPH | gust MPH | rain 1hr in | rain 24hr in | rain mn in | humidity % | barometer mb |
| 20260510011055 | 57 | 0 | 0.0 | 0.0 | 0.00 | 0.09 | 0.09 | 82 | 1010.3 |
| 20260510010551 | 58 | 0 | 0.0 | 0.0 | 0.00 | 0.09 | 0.09 | 82 | 1010.1 |
| 20260510010112 | 58 | 0 | 0.0 | 0.0 | 0.00 | 0.09 | 0.09 | 81 | 1010.2 |
| 20260510005552 | 58 | 0 | 0.0 | 0.0 | 0.00 | 0.09 | 0.09 | 80 | 1010.1 |
| 20260510005051 | 59 | 0 | 0.0 | 0.0 | 0.00 | 0.09 | 0.09 | 79 | 1010.1 |
| 20260510004600 | 59 | 0 | 0.0 | 0.0 | 0.00 | 0.09 | 0.09 | 78 | 1010.0 |
| 20260510004051 | 59 | 0 | 0.0 | 0.0 | 0.00 | 0.09 | 0.09 | 78 | 1009.9 |
| 20260510003551 | 60 | 0 | 0.0 | 0.0 | 0.00 | 0.09 | 0.09 | 77 | 1009.9 |
| 20260510003055 | 60 | 0 | 0.0 | 0.0 | 0.00 | 0.09 | 0.09 | 76 | 1009.9 |
| 20260510002558 | 60 | 0 | 0.0 | 0.0 | 0.00 | 0.09 | 0.09 | 76 | 1009.8 |
| 20260510002052 | 60 | 0 | 0.0 | 0.0 | 0.00 | 0.09 | 0.09 | 76 | 1009.7 |
| 20260510001600 | 60 | 0 | 0.0 | 0.0 | 0.00 | 0.09 | 0.09 | 76 | 1009.7 |
| 20260510001052 | 61 | 0 | 0.0 | 0.0 | 0.00 | 0.09 | 0.09 | 75 | 1009.7 |
| 20260510000552 | 61 | 0 | 0.0 | 0.0 | 0.00 | 0.09 | 0.09 | 75 | 1009.6 |
| 20260510000132 | 61 | 0 | 0.0 | 0.0 | 0.00 | 0.09 | 0.09 | 75 | 1009.5 |
| 20260509235552 | 61 | 0 | 0.0 | 0.0 | 0.00 | 0.09 | 0.09 | 75 | 1009.5 |
| 20260509235052 | 62 | 0 | 0.0 | 0.0 | 0.00 | 0.09 | 0.09 | 74 | 1009.5 |
| 20260509234604 | 62 | 0 | 0.0 | 0.0 | 0.00 | 0.09 | 0.09 | 73 | 1009.4 |
| 20260509234056 | 62 | 0 | 0.0 | 0.0 | 0.00 | 0.09 | 0.09 | 72 | 1009.5 |
| 20260509233552 | 62 | 0 | 0.0 | 0.0 | 0.00 | 0.09 | 0.09 | 72 | 1009.4 |
| 20260509233054 | 62 | 0 | 0.0 | 0.0 | 0.00 | 0.09 | 0.09 | 72 | 1009.4 |
| 20260509232551 | 62 | 0 | 0.0 | 0.0 | 0.00 | 0.09 | 0.09 | 71 | 1009.4 |
| 20260509232053 | 62 | 0 | 0.0 | 0.0 | 0.00 | 0.09 | 0.09 | 71 | 1009.3 |
| 20260509231559 | 62 | 0 | 0.0 | 0.0 | 0.00 | 0.09 | 0.09 | 71 | 1009.4 |
| 20260509231100 | 63 | 0 | 0.0 | 0.0 | 0.00 | 0.09 | 0.09 | 71 | 1009.3 |
| 20260509230551 | 63 | 0 | 0.0 | 0.0 | 0.00 | 0.09 | 0.09 | 70 | 1009.4 |
| 20260509230053 | 63 | 0 | 0.0 | 0.0 | 0.00 | 0.09 | 0.09 | 70 | 1009.3 |
| 20260509225553 | 63 | 0 | 0.0 | 0.0 | 0.00 | 0.09 | 0.09 | 69 | 1009.4 |
| 20260509225052 | 63 | 0 | 0.0 | 0.0 | 0.00 | 0.09 | 0.09 | 68 | 1009.6 |
| 20260509224554 | 63 | 0 | 0.0 | 0.0 | 0.00 | 0.09 | 0.09 | 69 | 1009.6 |
| 20260509224055 | 63 | 0 | 0.0 | 0.0 | 0.00 | 0.09 | 0.09 | 68 | 1009.7 |
| 20260509223552 | 63 | 0 | 0.0 | 0.0 | 0.00 | 0.09 | 0.09 | 69 | 1009.6 |
| 20260509223053 | 63 | 0 | 0.0 | 2.0 | 0.00 | 0.09 | 0.09 | 70 | 1009.6 |
| 20260509222552 | 63 | 0 | 0.0 | 5.0 | 0.00 | 0.09 | 0.09 | 71 | 1009.5 |
| 20260509222052 | 63 | 0 | 0.0 | 5.0 | 0.00 | 0.09 | 0.09 | 69 | 1009.7 |
| 20260509221606 | 63 | 0 | 0.0 | 3.0 | 0.00 | 0.09 | 0.09 | 69 | 1009.6 |
| 20260509221052 | 63 | 0 | 0.0 | 3.0 | 0.00 | 0.09 | 0.09 | 67 | 1009.5 |
| 20260509220553 | 63 | 0 | 0.0 | 3.0 | 0.00 | 0.09 | 0.09 | 65 | 1009.6 |
| 20260509220105 | 63 | 0 | 0.0 | 3.0 | 0.00 | 0.09 | 0.09 | 66 | 1009.6 |
| 20260509215552 | 63 | 0 | 0.0 | 3.0 | 0.00 | 0.09 | 0.09 | 67 | 1009.6 |
| 20260509215052 | 63 | 0 | 0.0 | 4.0 | 0.00 | 0.09 | 0.09 | 67 | 1009.7 |
| 20260509214556 | 63 | 82 | 1.0 | 4.0 | 0.00 | 0.09 | 0.09 | 68 | 1009.7 |
| 20260509214055 | 63 | 0 | 0.0 | 3.0 | 0.00 | 0.09 | 0.09 | 67 | 1009.6 |
| 20260509213551 | 63 | 0 | 0.0 | 3.0 | 0.00 | 0.09 | 0.09 | 68 | 1009.9 |
| 20260509213055 | 64 | 0 | 0.0 | 0.0 | 0.00 | 0.09 | 0.09 | 68 | 1009.9 |
| 20260509212552 | 64 | 0 | 0.0 | 0.0 | 0.00 | 0.09 | 0.09 | 66 | 1009.9 |
| 20260509212055 | 64 | 0 | 0.0 | 0.0 | 0.00 | 0.09 | 0.09 | 67 | 1010.0 |
| 20260509211551 | 63 | 0 | 0.0 | 0.0 | 0.00 | 0.09 | 0.09 | 62 | 1010.2 |
| 20260509211055 | 63 | 0 | 0.0 | 0.0 | 0.00 | 0.09 | 0.09 | 63 | 1010.2 |
| 20260509210553 | 63 | 0 | 0.0 | 0.0 | 0.00 | 0.09 | 0.09 | 64 | 1010.2 |
| 20260509210059 | 63 | 0 | 0.0 | 0.0 | 0.00 | 0.09 | 0.09 | 66 | 1010.3 |
| 20260509205552 | 63 | 0 | 0.0 | 4.0 | 0.00 | 0.09 | 0.09 | 68 | 1010.3 |
| 20260509205052 | 63 | 0 | 0.0 | 4.0 | 0.00 | 0.09 | 0.09 | 66 | 1010.3 |
| 20260509204559 | 63 | 283 | 1.0 | 4.0 | 0.00 | 0.09 | 0.09 | 65 | 1010.5 |
| 20260509204052 | 63 | 283 | 2.0 | 3.0 | 0.00 | 0.09 | 0.09 | 66 | 1010.2 |
| 20260509203551 | 62 | 344 | 0.0 | 3.0 | 0.00 | 0.09 | 0.09 | 67 | 1010.2 |
| 20260509203055 | 62 | 344 | 1.0 | 3.0 | 0.00 | 0.09 | 0.09 | 68 | 1010.0 |
| 20260509202554 | 62 | 0 | 0.0 | 2.0 | 0.00 | 0.09 | 0.09 | 69 | 1010.0 |
| 20260509202055 | 62 | 342 | 0.0 | 2.0 | 0.00 | 0.09 | 0.09 | 68 | 1010.0 |
| 20260509201553 | 63 | 0 | 0.0 | 0.0 | 0.00 | 0.09 | 0.09 | 68 | 1010.0 |
| 20260509201052 | 63 | 0 | 0.0 | 0.0 | 0.00 | 0.09 | 0.09 | 68 | 1010.1 |
| 20260509200551 | 63 | 0 | 0.0 | 0.0 | 0.00 | 0.09 | 0.09 | 67 | 1010.2 |
| 20260509195551 | 63 | 0 | 0.0 | 1.0 | 0.00 | 0.09 | 0.09 | 68 | 1010.2 |
| 20260509195052 | 63 | 0 | 0.0 | 4.0 | 0.00 | 0.09 | 0.09 | 69 | 1010.3 |
| 20260509194555 | 64 | 0 | 0.0 | 4.0 | 0.00 | 0.09 | 0.09 | 65 | 1010.3 |
| 20260509194052 | 64 | 291 | 1.0 | 4.0 | 0.00 | 0.09 | 0.09 | 65 | 1010.3 |
| 20260509193556 | 64 | 201 | 0.0 | 3.0 | 0.00 | 0.09 | 0.09 | 68 | 1010.5 |
| 20260509193114 | 64 | 0 | 0.0 | 2.0 | 0.00 | 0.09 | 0.09 | 67 | 1010.5 |
| 20260509192552 | 63 | 0 | 0.0 | 4.0 | 0.00 | 0.09 | 0.09 | 68 | 1010.6 |
| 20260509192055 | 63 | 0 | 1.0 | 4.0 | 0.00 | 0.09 | 0.09 | 71 | 1010.7 |
| 20260509191612 | 63 | 0 | 0.0 | 4.0 | 0.00 | 0.09 | 0.09 | 70 | 1010.9 |
| 20260509191051 | 62 | 0 | 0.0 | 6.0 | 0.00 | 0.09 | 0.09 | 69 | 1011.0 |
| 20260509190551 | 62 | 0 | 0.0 | 6.0 | 0.00 | 0.09 | 0.09 | 70 | 1010.8 |
| 20260509190110 | 62 | 163 | 0.0 | 5.0 | 0.00 | 0.09 | 0.09 | 71 | 1010.8 |
| 20260509185552 | 62 | 0 | 2.0 | 7.0 | 0.00 | 0.09 | 0.09 | 70 | 1010.9 |
| 20260509185051 | 62 | 0 | 1.0 | 7.0 | 0.00 | 0.09 | 0.09 | 73 | 1011.1 |
| 20260509184554 | 61 | 165 | 0.0 | 8.0 | 0.00 | 0.09 | 0.09 | 74 | 1011.2 |
| 20260509184051 | 61 | 0 | 1.0 | 9.0 | 0.00 | 0.09 | 0.09 | 73 | 1011.1 |
| 20260509183551 | 61 | 207 | 3.0 | 9.0 | 0.00 | 0.09 | 0.09 | 76 | 1011.3 |
| 20260509183102 | 61 | 0 | 5.0 | 9.0 | 0.00 | 0.09 | 0.09 | 77 | 1011.2 |
| 20260509182551 | 60 | 155 | 3.0 | 11.0 | 0.00 | 0.09 | 0.09 | 79 | 1011.4 |
| 20260509182051 | 60 | 129 | 1.0 | 11.0 | 0.00 | 0.09 | 0.09 | 79 | 1011.3 |
| 20260509181556 | 59 | 123 | 4.0 | 10.0 | 0.00 | 0.09 | 0.09 | 79 | 1011.4 |
| 20260509181053 | 59 | 136 | 4.0 | 10.0 | 0.00 | 0.09 | 0.09 | 80 | 1011.7 |
| 20260509180551 | 59 | 118 | 3.0 | 9.0 | 0.00 | 0.09 | 0.09 | 82 | 1011.5 |
| 20260509180054 | 58 | 115 | 2.0 | 7.0 | 0.00 | 0.09 | 0.09 | 83 | 1011.6 |
| 20260509175553 | 58 | 136 | 2.0 | 5.0 | 0.00 | 0.09 | 0.09 | 81 | 1011.8 |
| 20260509175053 | 57 | 0 | 0.0 | 5.0 | 0.00 | 0.09 | 0.09 | 82 | 1011.7 |
| 20260509174553 | 57 | 134 | 0.0 | 5.0 | 0.00 | 0.09 | 0.09 | 82 | 1012.0 |
| 20260509174053 | 57 | 130 | 1.0 | 5.0 | 0.00 | 0.09 | 0.09 | 83 | 1011.9 |
| 20260509173553 | 57 | 0 | 2.0 | 5.0 | 0.00 | 0.09 | 0.09 | 83 | 1012.2 |
| 20260509173058 | 57 | 126 | 0.0 | 3.0 | 0.00 | 0.09 | 0.09 | 83 | 1011.7 |
| 20260509172554 | 57 | 126 | 0.0 | 3.0 | 0.00 | 0.09 | 0.09 | 83 | 1011.8 |
| 20260509172052 | 57 | 0 | 1.0 | 3.0 | 0.00 | 0.09 | 0.09 | 84 | 1011.9 |
| 20260509171608 | 56 | 126 | 0.0 | 3.0 | 0.00 | 0.09 | 0.09 | 83 | 1012.1 |
| 20260509171051 | 56 | 0 | 1.0 | 3.0 | 0.00 | 0.09 | 0.09 | 83 | 1012.0 |
| 20260509170551 | 56 | 0 | 0.0 | 1.0 | 0.00 | 0.09 | 0.09 | 83 | 1012.0 |
| 20260509170055 | 56 | 0 | 0.0 | 2.0 | 0.00 | 0.09 | 0.09 | 83 | 1011.9 |
| 20260509165551 | 56 | 0 | 0.0 | 6.0 | 0.00 | 0.09 | 0.09 | 83 | 1011.8 |
| 20260509165051 | 56 | 0 | 1.0 | 7.0 | 0.00 | 0.09 | 0.09 | 84 | 1011.8 |
| 20260509164556 | 56 | 126 | 3.0 | 7.0 | 0.00 | 0.09 | 0.09 | 85 | 1012.0 |
| 20260509164053 | 56 | 134 | 2.0 | 7.0 | 0.01 | 0.09 | 0.09 | 85 | 1012.1 |
| 20260509163554 | 56 | 122 | 3.0 | 10.0 | 0.01 | 0.09 | 0.09 | 85 | 1012.2 |
| 20260509163059 | 56 | 122 | 3.0 | 10.0 | 0.01 | 0.09 | 0.09 | 86 | 1012.3 |
| 20260509162556 | 56 | 169 | 3.0 | 9.0 | 0.01 | 0.09 | 0.09 | 85 | 1012.4 |
| 20260509162051 | 56 | 147 | 3.0 | 9.0 | 0.01 | 0.09 | 0.09 | 85 | 1012.4 |
| 20260509161557 | 56 | 130 | 3.0 | 9.0 | 0.01 | 0.09 | 0.09 | 85 | 1012.5 |
| 20260509161052 | 56 | 148 | 4.0 | 9.0 | 0.01 | 0.09 | 0.09 | 86 | 1012.4 |
| 20260509160553 | 56 | 142 | 0.0 | 3.0 | 0.02 | 0.09 | 0.09 | 88 | 1012.4 |
| 20260509160054 | 56 | 0 | 0.0 | 3.0 | 0.03 | 0.09 | 0.09 | 88 | 1012.5 |
| 20260509155552 | 55 | 100 | 0.0 | 3.0 | 0.05 | 0.09 | 0.09 | 88 | 1012.3 |
| 20260509155054 | 55 | 0 | 0.0 | 0.0 | 0.06 | 0.09 | 0.09 | 89 | 1012.3 |
| 20260509154558 | 55 | 0 | 0.0 | 3.0 | 0.07 | 0.08 | 0.08 | 89 | 1012.2 |
| 20260509154053 | 55 | 0 | 0.0 | 3.0 | 0.07 | 0.08 | 0.08 | 89 | 1012.1 |
| 20260509153551 | 55 | 329 | 0.0 | 3.0 | 0.07 | 0.08 | 0.08 | 89 | 1011.9 |
| 20260509153058 | 55 | 0 | 0.0 | 0.0 | 0.08 | 0.08 | 0.08 | 89 | 1012.0 |
| 20260509152551 | 55 | 0 | 0.0 | 0.0 | 0.08 | 0.08 | 0.08 | 88 | 1012.2 |
| 20260509152051 | 55 | 0 | 0.0 | 0.0 | 0.08 | 0.08 | 0.08 | 87 | 1012.2 |
| 20260509151605 | 55 | 0 | 0.0 | 0.0 | 0.08 | 0.08 | 0.08 | 85 | 1012.3 |
| 20260509151051 | 55 | 0 | 0.0 | 0.0 | 0.08 | 0.08 | 0.08 | 85 | 1012.3 |
| 20260509150551 | 55 | 0 | 0.0 | 0.0 | 0.07 | 0.07 | 0.07 | 84 | 1012.5 |
| 20260509150056 | 56 | 0 | 0.0 | 0.0 | 0.06 | 0.06 | 0.06 | 84 | 1012.8 |
| 20260509145551 | 56 | 0 | 0.0 | 0.0 | 0.04 | 0.04 | 0.04 | 83 | 1012.6 |
| 20260509145051 | 56 | 0 | 0.0 | 0.0 | 0.02 | 0.02 | 0.02 | 82 | 1012.6 |
| 20260509144557 | 56 | 0 | 0.0 | 0.0 | 0.01 | 0.01 | 0.01 | 80 | 1012.7 |
| 20260509144051 | 56 | 0 | 0.0 | 0.0 | 0.01 | 0.01 | 0.01 | 79 | 1012.6 |
| 20260509143553 | 56 | 0 | 0.0 | 0.0 | 0.01 | 0.01 | 0.01 | 79 | 1012.6 |
| 20260509143057 | 57 | 0 | 0.0 | 0.0 | 0.00 | 0.00 | 0.00 | 79 | 1012.7 |
| 20260509142550 | 57 | 0 | 0.0 | 0.0 | 0.00 | 0.00 | 0.00 | 78 | 1012.7 |
| 20260509142051 | 57 | 0 | 0.0 | 2.0 | 0.00 | 0.00 | 0.00 | 77 | 1012.7 |
| 20260509141558 | 57 | 0 | 0.0 | 3.0 | 0.00 | 0.00 | 0.00 | 76 | 1012.7 |
| 20260509141052 | 57 | 0 | 0.0 | 4.0 | 0.00 | 0.00 | 0.00 | 76 | 1012.8 |
| 20260509140553 | 57 | 244 | 1.0 | 4.0 | 0.00 | 0.00 | 0.00 | 73 | 1012.6 |
| 20260509140104 | 57 | 0 | 0.0 | 4.0 | 0.00 | 0.00 | 0.00 | 70 | 1012.5 |
| 20260509135551 | 58 | 0 | 0.0 | 4.0 | 0.00 | 0.00 | 0.00 | 72 | 1012.4 |
| 20260509135052 | 58 | 246 | 2.0 | 4.0 | 0.00 | 0.00 | 0.00 | 72 | 1012.1 |
| 20260509134606 | 57 | 0 | 0.0 | 2.0 | 0.00 | 0.00 | 0.00 | 71 | 1012.1 |
| 20260509134051 | 57 | 0 | 0.0 | 0.0 | 0.00 | 0.00 | 0.00 | 72 | 1012.1 |
| 20260509133551 | 57 | 0 | 0.0 | 4.0 | 0.00 | 0.00 | 0.00 | 73 | 1012.2 |
| 20260509133052 | 56 | 0 | 0.0 | 4.0 | 0.00 | 0.00 | 0.00 | 74 | 1012.3 |
| 20260509132551 | 56 | 221 | 1.0 | 4.0 | 0.00 | 0.00 | 0.00 | 76 | 1012.3 |
| 20260509132054 | 56 | 0 | 0.0 | 0.0 | 0.00 | 0.00 | 0.00 | 75 | 1012.2 |
| 20260509131633 | 55 | 0 | 0.0 | 0.0 | 0.00 | 0.00 | 0.00 | 77 | 1012.2 |
| 20260509131051 | 55 | 0 | 0.0 | 0.0 | 0.00 | 0.00 | 0.00 | 75 | 1012.2 |
| 20260509130553 | 55 | 0 | 0.0 | 0.0 | 0.00 | 0.00 | 0.00 | 76 | 1012.0 |
| 20260509130131 | 55 | 0 | 0.0 | 3.0 | 0.00 | 0.00 | 0.00 | 76 | 1011.9 |
| 20260509125551 | 55 | 0 | 0.0 | 3.0 | 0.00 | 0.00 | 0.00 | 75 | 1011.8 |
| 20260509125056 | 55 | 211 | 0.0 | 3.0 | 0.00 | 0.00 | 0.00 | 75 | 1012.1 |
| 20260509124554 | 54 | 0 | 0.0 | 0.0 | 0.00 | 0.00 | 0.00 | 76 | 1011.8 |
| 20260509124051 | 54 | 0 | 0.0 | 0.0 | 0.00 | 0.00 | 0.00 | 77 | 1011.9 |
| 20260509123551 | 54 | 0 | 0.0 | 0.0 | 0.00 | 0.00 | 0.00 | 78 | 1012.0 |
| 20260509123103 | 54 | 0 | 0.0 | 0.0 | 0.00 | 0.00 | 0.00 | 81 | 1011.9 |
| 20260509122552 | 54 | 0 | 0.0 | 0.0 | 0.00 | 0.00 | 0.00 | 81 | 1011.9 |
| 20260509122051 | 54 | 0 | 0.0 | 0.0 | 0.00 | 0.00 | 0.00 | 82 | 1011.8 |
| 20260509121557 | 54 | 0 | 0.0 | 0.0 | 0.00 | 0.00 | 0.00 | 83 | 1012.0 |
| 20260509121053 | 54 | 0 | 0.0 | 0.0 | 0.00 | 0.00 | 0.00 | 83 | 1012.0 |
| 20260509120554 | 54 | 0 | 0.0 | 0.0 | 0.00 | 0.00 | 0.00 | 83 | 1011.9 |
| 20260509120110 | 53 | 0 | 0.0 | 0.0 | 0.00 | 0.00 | 0.00 | 83 | 1011.9 |
| 20260509115550 | 53 | 0 | 0.0 | 0.0 | 0.00 | 0.00 | 0.00 | 84 | 1011.7 |
| 20260509115051 | 53 | 0 | 0.0 | 0.0 | 0.00 | 0.00 | 0.00 | 85 | 1011.7 |
| 20260509114609 | 53 | 0 | 0.0 | 4.0 | 0.00 | 0.00 | 0.00 | 85 | 1011.7 |
| 20260509114051 | 53 | 0 | 1.0 | 4.0 | 0.00 | 0.00 | 0.00 | 85 | 1011.7 |
| 20260509113550 | 53 | 0 | 0.0 | 4.0 | 0.00 | 0.00 | 0.00 | 85 | 1011.5 |
| 20260509113055 | 53 | 0 | 2.0 | 4.0 | 0.00 | 0.00 | 0.00 | 85 | 1011.5 |
| 20260509112552 | 52 | 0 | 0.0 | 0.0 | 0.00 | 0.00 | 0.00 | 84 | 1011.5 |
| 20260509112053 | 52 | 0 | 0.0 | 0.0 | 0.00 | 0.00 | 0.00 | 84 | 1011.7 |
| 20260509111552 | 52 | 0 | 0.0 | 0.0 | 0.00 | 0.00 | 0.00 | 84 | 1011.5 |
| 20260509111053 | 52 | 0 | 0.0 | 0.0 | 0.00 | 0.00 | 0.00 | 84 | 1011.4 |
| 20260509110552 | 52 | 0 | 0.0 | 0.0 | 0.00 | 0.00 | 0.00 | 84 | 1011.4 |
| 20260509110105 | 52 | 0 | 0.0 | 0.0 | 0.00 | 0.00 | 0.00 | 84 | 1011.3 |
| 20260509105556 | 52 | 0 | 0.0 | 0.0 | 0.00 | 0.00 | 0.00 | 84 | 1011.4 |
| 20260509105053 | 52 | 0 | 0.0 | 0.0 | 0.00 | 0.00 | 0.00 | 84 | 1011.3 |
| 20260509104610 | 52 | 0 | 0.0 | 0.0 | 0.00 | 0.00 | 0.00 | 84 | 1011.1 |
| 20260509104052 | 52 | 0 | 0.0 | 0.0 | 0.00 | 0.00 | 0.00 | 84 | 1011.2 |
| 20260509103554 | 52 | 0 | 0.0 | 0.0 | 0.00 | 0.00 | 0.00 | 84 | 1011.2 |
| 20260509103051 | 52 | 0 | 0.0 | 0.0 | 0.00 | 0.00 | 0.00 | 83 | 1011.1 |
| 20260509102551 | 52 | 0 | 0.0 | 0.0 | 0.00 | 0.00 | 0.00 | 83 | 1011.1 |
| 20260509102052 | 52 | 0 | 0.0 | 0.0 | 0.00 | 0.00 | 0.00 | 83 | 1011.1 |
| 20260509101559 | 52 | 0 | 0.0 | 0.0 | 0.00 | 0.00 | 0.00 | 83 | 1011.0 |
| 20260509101055 | 52 | 0 | 0.0 | 0.0 | 0.00 | 0.00 | 0.00 | 82 | 1010.9 |
| 20260509100551 | 52 | 0 | 0.0 | 0.0 | 0.00 | 0.00 | 0.00 | 82 | 1010.9 |
| 20260509100058 | 52 | 0 | 0.0 | 0.0 | 0.00 | 0.00 | 0.00 | 82 | 1010.9 |
| 20260509095555 | 52 | 0 | 0.0 | 0.0 | 0.00 | 0.00 | 0.00 | 82 | 1011.0 |
| 20260509095052 | 52 | 0 | 0.0 | 0.0 | 0.00 | 0.00 | 0.00 | 82 | 1011.1 |
| 20260509094610 | 52 | 0 | 0.0 | 0.0 | 0.00 | 0.00 | 0.00 | 82 | 1011.0 |
| 20260509094056 | 52 | 0 | 0.0 | 0.0 | 0.00 | 0.00 | 0.00 | 81 | 1011.1 |
| 20260509093553 | 52 | 0 | 0.0 | 0.0 | 0.00 | 0.00 | 0.00 | 81 | 1011.2 |
| 20260509093102 | 52 | 0 | 0.0 | 0.0 | 0.00 | 0.00 | 0.00 | 81 | 1011.1 |
| 20260509092555 | 52 | 0 | 0.0 | 0.0 | 0.00 | 0.00 | 0.00 | 81 | 1011.0 |
| 20260509092054 | 52 | 0 | 0.0 | 0.0 | 0.00 | 0.00 | 0.00 | 81 | 1011.1 |
| 20260509091555 | 52 | 0 | 0.0 | 0.0 | 0.00 | 0.00 | 0.00 | 81 | 1011.1 |
| 20260509091056 | 52 | 0 | 0.0 | 0.0 | 0.00 | 0.00 | 0.00 | 81 | 1011.1 |
| 20260509090551 | 52 | 0 | 0.0 | 0.0 | 0.00 | 0.00 | 0.00 | 81 | 1011.2 |
| 20260509090107 | 52 | 0 | 0.0 | 0.0 | 0.00 | 0.00 | 0.00 | 82 | 1011.2 |
| 20260509085551 | 52 | 0 | 0.0 | 0.0 | 0.00 | 0.00 | 0.00 | 81 | 1011.3 |
| 20260509085050 | 52 | 0 | 0.0 | 0.0 | 0.00 | 0.00 | 0.00 | 82 | 1011.4 |
| 20260509084600 | 52 | 0 | 0.0 | 0.0 | 0.00 | 0.00 | 0.00 | 82 | 1011.4 |
| 20260509084051 | 52 | 0 | 0.0 | 0.0 | 0.00 | 0.00 | 0.00 | 82 | 1011.5 |
| 20260509083556 | 52 | 0 | 0.0 | 0.0 | 0.00 | 0.00 | 0.00 | 82 | 1011.2 |
| 20260509083057 | 52 | 0 | 0.0 | 0.0 | 0.00 | 0.00 | 0.00 | 82 | 1011.3 |
| 20260509082552 | 52 | 0 | 0.0 | 0.0 | 0.00 | 0.00 | 0.00 | 81 | 1011.3 |
| 20260509082051 | 52 | 0 | 0.0 | 0.0 | 0.00 | 0.00 | 0.00 | 81 | 1011.4 |
| 20260509081600 | 52 | 0 | 0.0 | 0.0 | 0.00 | 0.00 | 0.00 | 81 | 1011.4 |
| 20260509081051 | 52 | 0 | 0.0 | 0.0 | 0.00 | 0.00 | 0.00 | 81 | 1011.5 |
| 20260509080552 | 52 | 0 | 0.0 | 0.0 | 0.00 | 0.00 | 0.00 | 80 | 1011.5 |
| 20260509080057 | 52 | 0 | 0.0 | 0.0 | 0.00 | 0.00 | 0.00 | 80 | 1011.6 |
| 20260509075554 | 52 | 0 | 0.0 | 0.0 | 0.00 | 0.00 | 0.00 | 80 | 1011.7 |
| 20260509075054 | 52 | 0 | 0.0 | 0.0 | 0.00 | 0.00 | 0.00 | 80 | 1011.6 |
| 20260509074601 | 52 | 0 | 0.0 | 0.0 | 0.00 | 0.00 | 0.00 | 81 | 1011.7 |
| 20260509074052 | 52 | 0 | 0.0 | 0.0 | 0.00 | 0.00 | 0.00 | 81 | 1011.5 |
| 20260509073551 | 52 | 0 | 0.0 | 0.0 | 0.00 | 0.00 | 0.00 | 81 | 1011.6 |
| 20260509073058 | 52 | 0 | 0.0 | 0.0 | 0.00 | 0.00 | 0.00 | 81 | 1011.5 |
| 20260509072554 | 52 | 0 | 0.0 | 0.0 | 0.00 | 0.00 | 0.00 | 81 | 1011.6 |
| 20260509072053 | 52 | 0 | 0.0 | 0.0 | 0.00 | 0.00 | 0.00 | 80 | 1011.5 |
| 20260509071559 | 52 | 0 | 0.0 | 0.0 | 0.00 | 0.00 | 0.00 | 80 | 1011.6 |
| 20260509071052 | 52 | 0 | 0.0 | 0.0 | 0.00 | 0.00 | 0.00 | 79 | 1011.7 |
| 20260509070551 | 52 | 0 | 0.0 | 0.0 | 0.00 | 0.00 | 0.00 | 78 | 1011.6 |
| 20260509070105 | 52 | 0 | 0.0 | 0.0 | 0.00 | 0.00 | 0.00 | 78 | 1011.5 |
| 20260509065550 | 53 | 0 | 0.0 | 0.0 | 0.00 | 0.00 | 0.00 | 77 | 1011.6 |
| 20260509065050 | 53 | 0 | 0.0 | 0.0 | 0.00 | 0.00 | 0.00 | 77 | 1011.7 |
| 20260509064553 | 53 | 0 | 0.0 | 0.0 | 0.00 | 0.00 | 0.00 | 76 | 1011.7 |
| 20260509064051 | 53 | 0 | 0.0 | 0.0 | 0.00 | 0.00 | 0.00 | 76 | 1011.6 |
| 20260509063552 | 53 | 0 | 0.0 | 0.0 | 0.00 | 0.00 | 0.00 | 76 | 1011.7 |
| 20260509063050 | 53 | 0 | 0.0 | 0.0 | 0.00 | 0.00 | 0.00 | 76 | 1011.8 |
| 20260509062550 | 53 | 0 | 0.0 | 0.0 | 0.00 | 0.00 | 0.00 | 75 | 1011.8 |
| 20260509062051 | 53 | 0 | 0.0 | 0.0 | 0.00 | 0.00 | 0.00 | 75 | 1011.9 |
| 20260509061602 | 53 | 0 | 0.0 | 0.0 | 0.00 | 0.00 | 0.00 | 74 | 1011.8 |
| 20260509061051 | 53 | 0 | 0.0 | 0.0 | 0.00 | 0.00 | 0.00 | 74 | 1011.8 |
| 20260509060553 | 54 | 0 | 0.0 | 0.0 | 0.00 | 0.00 | 0.00 | 74 | 1011.8 |
| 20260509060057 | 54 | 0 | 0.0 | 0.0 | 0.00 | 0.00 | 0.00 | 74 | 1011.6 |
| 20260509055553 | 54 | 0 | 0.0 | 0.0 | 0.00 | 0.00 | 0.00 | 74 | 1011.5 |
| 20260509055053 | 54 | 0 | 0.0 | 0.0 | 0.00 | 0.00 | 0.00 | 74 | 1011.8 |
| 20260509054613 | 54 | 0 | 0.0 | 0.0 | 0.00 | 0.00 | 0.00 | 75 | 1011.8 |
| 20260509054052 | 54 | 0 | 0.0 | 0.0 | 0.00 | 0.00 | 0.00 | 75 | 1011.7 |
| 20260509053553 | 54 | 0 | 0.0 | 0.0 | 0.00 | 0.00 | 0.00 | 75 | 1011.9 |
| 20260509053141 | 54 | 0 | 0.0 | 0.0 | 0.00 | 0.00 | 0.00 | 75 | 1012.0 |
| 20260509052555 | 54 | 0 | 0.0 | 0.0 | 0.00 | 0.00 | 0.00 | 74 | 1012.1 |
| 20260509052053 | 54 | 0 | 0.0 | 0.0 | 0.00 | 0.00 | 0.00 | 74 | 1012.3 |
| 20260509051557 | 54 | 0 | 0.0 | 0.0 | 0.00 | 0.00 | 0.00 | 73 | 1012.5 |
| 20260509051050 | 54 | 0 | 0.0 | 0.0 | 0.00 | 0.00 | 0.00 | 73 | 1012.5 |
| 20260509050550 | 54 | 0 | 0.0 | 0.0 | 0.00 | 0.00 | 0.00 | 73 | 1012.5 |
| 20260509050056 | 54 | 0 | 0.0 | 0.0 | 0.00 | 0.00 | 0.00 | 72 | 1012.4 |
| 20260509045551 | 54 | 0 | 0.0 | 0.0 | 0.00 | 0.00 | 0.00 | 73 | 1012.5 |
| 20260509045051 | 54 | 0 | 0.0 | 0.0 | 0.00 | 0.00 | 0.00 | 73 | 1012.4 |
| 20260509044552 | 54 | 0 | 0.0 | 0.0 | 0.00 | 0.00 | 0.00 | 71 | 1012.5 |
| 20260509044051 | 54 | 0 | 0.0 | 0.0 | 0.00 | 0.00 | 0.00 | 71 | 1012.5 |
| 20260509043552 | 54 | 0 | 0.0 | 0.0 | 0.00 | 0.00 | 0.00 | 70 | 1012.5 |
| 20260509043058 | 55 | 0 | 0.0 | 0.0 | 0.00 | 0.00 | 0.00 | 70 | 1012.6 |
| 20260509042554 | 55 | 0 | 0.0 | 0.0 | 0.00 | 0.00 | 0.00 | 68 | 1012.5 |
| 20260509042051 | 55 | 0 | 0.0 | 0.0 | 0.00 | 0.00 | 0.00 | 68 | 1012.6 |
| 20260509041556 | 55 | 0 | 0.0 | 0.0 | 0.00 | 0.00 | 0.00 | 68 | 1012.5 |
| 20260509041051 | 55 | 0 | 0.0 | 0.0 | 0.00 | 0.00 | 0.00 | 68 | 1012.5 |
| 20260509040550 | 55 | 0 | 0.0 | 0.0 | 0.00 | 0.00 | 0.00 | 69 | 1012.5 |
| 20260509040116 | 55 | 0 | 0.0 | 0.0 | 0.00 | 0.00 | 0.00 | 69 | 1012.6 |
| 20260509035550 | 56 | 0 | 0.0 | 3.0 | 0.00 | 0.00 | 0.00 | 69 | 1012.7 |
| 20260509035056 | 56 | 0 | 0.0 | 3.0 | 0.00 | 0.00 | 0.00 | 70 | 1012.7 |
| 20260509034630 | 56 | 325 | 0.0 | 3.0 | 0.00 | 0.00 | 0.00 | 68 | 1012.7 |
| 20260509034050 | 56 | 0 | 0.0 | 3.0 | 0.00 | 0.00 | 0.00 | 68 | 1012.6 |
| 20260509033550 | 56 | 325 | 0.0 | 3.0 | 0.00 | 0.00 | 0.00 | 67 | 1012.5 |
| 20260509033110 | 56 | 0 | 0.0 | 4.0 | 0.00 | 0.00 | 0.00 | 68 | 1012.8 |
| 20260509032553 | 57 | 0 | 1.0 | 4.0 | 0.00 | 0.00 | 0.00 | 68 | 1012.9 |
| 20260509032050 | 57 | 0 | 0.0 | 3.0 | 0.00 | 0.00 | 0.00 | 66 | 1012.9 |
| 20260509031559 | 57 | 325 | 0.0 | 3.0 | 0.00 | 0.00 | 0.00 | 66 | 1012.9 |
| 20260509031053 | 58 | 0 | 0.0 | 6.0 | 0.00 | 0.00 | 0.00 | 65 | 1012.9 |
| 20260509030552 | 58 | 0 | 2.0 | 6.0 | 0.00 | 0.00 | 0.00 | 64 | 1012.9 |
| 20260509030109 | 58 | 324 | 1.0 | 5.0 | 0.00 | 0.00 | 0.00 | 65 | 1012.9 |
| 20260509025550 | 58 | 0 | 0.0 | 3.0 | 0.00 | 0.00 | 0.00 | 62 | 1013.0 |
| 20260509025052 | 58 | 0 | 1.0 | 4.0 | 0.00 | 0.00 | 0.00 | 63 | 1012.9 |
| 20260509024558 | 58 | 145 | 0.0 | 4.0 | 0.00 | 0.00 | 0.00 | 61 | 1013.0 |
| 20260509024051 | 59 | 145 | 1.0 | 3.0 | 0.00 | 0.00 | 0.00 | 61 | 1013.1 |
| 20260509023556 | 59 | 0 | 0.0 | 0.0 | 0.00 | 0.00 | 0.00 | 58 | 1012.7 |
| 20260509023056 | 58 | 0 | 0.0 | 0.0 | 0.00 | 0.00 | 0.00 | 58 | 1012.7 |
| 20260509022551 | 58 | 0 | 0.0 | 0.0 | 0.00 | 0.00 | 0.00 | 60 | 1012.8 |
| 20260509022050 | 58 | 0 | 0.0 | 5.0 | 0.00 | 0.00 | 0.00 | 60 | 1013.0 |
| 20260509021601 | 58 | 0 | 0.0 | 5.0 | 0.00 | 0.00 | 0.00 | 61 | 1013.1 |
| 20260509021050 | 58 | 145 | 2.0 | 5.0 | 0.00 | 0.00 | 0.00 | 62 | 1013.0 |
| 20260509020552 | 59 | 157 | 0.0 | 6.0 | 0.00 | 0.00 | 0.00 | 60 | 1013.0 |
| 20260509020053 | 59 | 0 | 2.0 | 6.0 | 0.00 | 0.00 | 0.00 | 58 | 1013.3 |
| 20260509015552 | 58 | 155 | 3.0 | 6.0 | 0.00 | 0.00 | 0.00 | 58 | 1013.0 |
| 20260509015052 | 59 | 155 | 3.0 | 10.0 | 0.00 | 0.00 | 0.00 | 59 | 1013.0 |
| 20260509014550 | 59 | 156 | 4.0 | 10.0 | 0.00 | 0.00 | 0.00 | 57 | 1012.9 |
| 20260509014051 | 59 | 155 | 5.0 | 8.0 | 0.00 | 0.00 | 0.00 | 57 | 1012.9 |
| 20260509013554 | 59 | 0 | 0.0 | 0.0 | 0.00 | 0.00 | 0.00 | 55 | 1012.8 |
| 20260509013109 | 59 | 0 | 0.0 | 0.0 | 0.00 | 0.00 | 0.00 | 54 | 1012.7 |
| 20260509012550 | 59 | 0 | 0.0 | 0.0 | 0.00 | 0.00 | 0.00 | 53 | 1012.6 |
| 20260509012054 | 60 | 0 | 0.0 | 0.0 | 0.00 | 0.00 | 0.00 | 53 | 1012.6 |
| 20260509011603 | 60 | 0 | 0.0 | 0.0 | 0.00 | 0.00 | 0.00 | 53 | 1012.6 |